[[{"header":{"parameterUnit":"m.s-1","parameterCategory":1,"la1":30.2991,"la2":30.254,"lo1":-89.0895,"lo2":-89.0444,"dy":0.0017,"dx":0.0017,"nx":28,"ny":28,"refTime":"2025-07-31T09:00:00:Z","depth":0,"parameterNumber":2,"parameterNumberName":"U-component_of_WINDS"},"data":[0,0,0,0,0,0,0,0,0,0,0,0,0,0,0,0,0,0,0,0,0,0,0,0,0,0,0,0,0,0,0,0,0,0,0,0,0,0,0,0,0,0,0,0,0,0,0,0,0,0,0,0,0,0,0,0,0,0,1.788,1.7881,0,1.7992,1.7993,1.7994,1.8037,1.8037,1.8036,1.8036,1.8153,1.8156,1.8159,0,0,0,0,0,0,0,0,0,0,0,0,0,1.7709,1.7712,1.788,1.7882,1.7883,1.7991,1.7993,1.7994,1.8037,1.8037,1.8036,1.8036,1.8152,1.8156,1.816,0,0,0,0,0,0,0,0,0,0,0,0,0,1.7798,1.7713,1.788,1.7917,1.7922,1.7991,1.7993,1.7995,1.8037,1.8037,1.8036,1.8036,1.815,1.8155,1.816,1.8201,0,0,1.8176,1.8178,0,0,0,0,0,0,0,0,1.7793,1.7804,1.791,1.7915,1.792,1.8,1.7975,1.8064,1.8037,1.7993,1.8036,1.8036,1.8102,1.8111,1.8133,1.8207,1.8212,1.8176,1.8179,1.8182,1.8183,0,0,0,0,0,0,0,1.7787,1.78,1.7924,1.7912,1.7918,1.793,1.7942,1.7992,1.8049,1.7997,1.8001,1.8013,1.8105,1.8128,1.8136,1.8213,1.8176,1.8181,1.8184,1.8186,1.833,1.833,0,0,0,0,0,0,1.7774,1.7794,1.7921,1.7928,1.7854,1.7933,1.7947,1.7975,1.8049,1.806,1.8013,1.8015,1.812,1.813,1.8141,1.8196,1.8181,1.8186,1.8189,1.8329,1.833,1.8331,0,0,0,0,0,0,1.777,1.7785,1.7916,1.7862,1.788,1.7937,1.7968,1.7977,1.8001,1.8061,1.8072,1.8027,1.812,1.8134,1.8186,1.82,1.8189,1.8193,1.8328,1.8329,1.833,1.8305,0,0,0,0,0,0,1.7765,1.7783,1.7798,1.7862,1.7882,1.7959,1.7969,1.798,1.8009,1.8012,1.8076,1.8087,1.8121,1.8179,1.8192,1.8207,1.8197,1.8327,1.8328,1.833,1.8305,1.8305,1.8305,0,0,0,0,0,1.7758,1.7786,1.7798,1.7814,1.7902,1.7959,1.7971,1.8009,1.801,1.8027,1.8066,1.8085,1.8197,1.8184,1.8199,1.8216,1.8326,1.8328,1.833,1.8304,1.8305,1.8305,0,0,0,0,0,0,1.7723,1.7795,1.781,1.7859,1.7903,1.7966,1.7988,1.8008,1.8053,1.8054,1.81,1.8114,1.8164,1.8195,1.8179,1.8261,1.8263,1.8268,1.8239,1.824,1.824,1.8231,1.8201,0,0,0,0,0,1.772,1.776,1.7821,1.7859,1.788,1.793,1.7957,1.7982,1.803,1.8049,1.8092,1.8138,1.8184,1.8214,1.8259,1.8309,1.8325,1.8329,1.8329,1.8329,1.8333,1.8365,1.8367,1.8336,1.8336,1.8336,0,0,1.7716,1.7761,1.7783,1.7853,1.789,1.7931,1.7946,1.7988,1.802,1.8056,1.8108,1.8142,1.8197,1.8249,1.8275,1.8277,1.8345,1.8331,1.8331,1.8335,1.8367,1.8369,1.8372,1.8337,1.8337,1.8337,0,0,1.773,1.7766,1.7803,1.784,1.7896,1.793,1.7938,1.8,1.8024,1.8077,1.8106,1.8145,1.8222,1.8261,1.8291,1.8322,1.8342,1.8336,1.8337,1.8368,1.837,1.8373,1.8386,1.8389,1.8339,1.8339,1.8339,0,1.7717,1.778,1.7819,1.7861,1.7892,1.7926,1.7965,1.7999,1.8067,1.8089,1.809,1.819,1.8229,1.8293,1.83,1.8323,1.8336,1.8329,1.8366,1.8369,1.8372,1.8385,1.839,1.8338,1.8338,1.8338,1.8339,0,1.7763,1.7806,1.7829,1.7894,1.7928,1.7967,1.8014,1.8044,1.8067,1.8101,1.8157,1.8206,1.8263,1.828,1.8303,1.8347,1.8347,1.8357,1.836,1.8373,1.8387,1.8392,1.8337,1.8337,1.8337,1.8338,0,0,1.7755,1.7844,1.7851,1.7882,1.7948,1.7983,1.8025,1.8081,1.8106,1.8153,1.8191,1.8257,1.8267,1.8301,1.8329,1.8355,1.838,1.8363,1.8365,1.8365,1.8435,1.8427,1.8432,1.8393,1.8394,1.8395,1.843,0,1.7779,1.7855,1.7893,1.7954,1.7995,1.803,1.8067,1.8113,1.8146,1.8188,1.8225,1.8272,1.8281,1.8302,1.833,1.8371,1.8394,1.8369,1.8431,1.8433,1.8417,1.8439,1.8431,1.8462,1.8436,1.8437,1.8437,0,1.7815,1.7862,1.7927,1.799,1.8009,1.8041,1.8097,1.8135,1.8189,1.8211,1.825,1.8278,1.8326,1.8326,1.8394,1.8376,1.8404,1.8428,1.843,1.8438,1.8436,1.8449,1.8472,1.8477,1.8445,1.8445,1.8444,0,1.7805,1.7884,1.7934,1.7959,1.8034,1.8056,1.8089,1.8141,1.8173,1.8222,1.8244,1.8298,1.8327,1.8369,1.8412,1.8407,1.8477,1.8479,1.8499,1.8498,1.8513,1.8511,1.8542,1.8529,1.8529,1.8528,1.8528,0,1.7828,1.7866,1.7931,1.7961,1.8007,1.8051,1.8095,1.813,1.8177,1.8217,1.825,1.8287,1.834,1.8384,1.8418,1.8471,1.8484,1.8505,1.8514,1.8502,1.85,1.8522,1.8521,1.853,1.853,1.8529,1.8529,0,1.7824,1.7868,1.7925,1.7991,1.8009,1.804,1.8097,1.813,1.8166,1.8215,1.823,1.8287,1.834,1.8387,1.8458,1.8481,1.8536,1.8545,1.8517,1.8522,1.854,1.8538,1.8587,1.8597,1.8575,1.8575,1.8575,0,1.7835,1.7866,1.7936,1.7965,1.7996,1.8042,1.8075,1.8121,1.8154,1.8219,1.8244,1.83,1.8347,1.8432,1.8481,1.8536,1.8548,1.8562,1.8557,1.8545,1.8551,1.8548,1.8553,1.8562,1.8562,1.8562,1.8562,0,1.7851,1.7873,1.7918,1.7973,1.8012,1.8057,1.8103,1.8125,1.818,1.8216,1.8272,1.8308,1.8382,1.8438,1.8499,1.8534,1.8558,1.8563,1.8571,1.856,1.8543,1.8554,1.8519,1.8562,1.8562,1.8562,1.8562,1.8562,1.7857,1.7886,1.7941,1.7992,1.8032,1.8075,1.8109,1.815,1.8197,1.826,1.8285,1.8342,1.8397,1.8482,1.8517,1.8564,1.8567,1.8578,1.8581,1.8583,1.8583,1.8535,1.8575,1.8575,1.8575,1.8575,1.8575,0,1.7876,1.7913,1.7959,1.8024,1.8065,1.8083,1.8136,1.8169,1.8219,1.8268,1.8315,1.838,1.8436,1.8489,1.8548,1.8575,1.8588,1.8589,1.8588,1.8597,1.8575,1.8563,1.8578,1.8578,1.8578,1.8578,1.8578,1.8578,1.789,1.7943,1.7971,1.8044,1.8082,1.8138,1.8167,1.8208,1.8248,1.8319,1.8365,1.84,1.8452,1.8515,1.8568,1.8583,1.8603,1.8602,1.862,1.8599,1.8598,1.8597,1.8586,1.8606,1.8606,1.8638,1.8638,1.8638]},{"header":{"parameterUnit":"m.s-1","parameterCategory":1,"la1":30.2991,"la2":30.254,"lo1":-89.0895,"lo2":-89.0444,"dy":0.0017,"dx":0.0017,"nx":28,"ny":28,"refTime":"2025-07-31T09:00:00:Z","depth":0,"parameterNumber":3,"parameterNumberName":"V-component_of_WINDS"},"data":[0,0,0,0,0,0,0,0,0,0,0,0,0,0,0,0,0,0,0,0,0,0,0,0,0,0,0,0,0,0,0,0,0,0,0,0,0,0,0,0,0,0,0,0,0,0,0,0,0,0,0,0,0,0,0,0,0,0,-0.1509,-0.1509,0,-0.1557,-0.1557,-0.1558,-0.1572,-0.1572,-0.1571,-0.1571,-0.1623,-0.1624,-0.1626,0,0,0,0,0,0,0,0,0,0,0,0,0,-0.143,-0.1432,-0.1509,-0.1509,-0.151,-0.1557,-0.1557,-0.1558,-0.1572,-0.1572,-0.1571,-0.1571,-0.1622,-0.1624,-0.1626,0,0,0,0,0,0,0,0,0,0,0,0,0,-0.147,-0.1432,-0.1508,-0.1522,-0.1524,-0.1557,-0.1558,-0.1558,-0.1572,-0.1572,-0.1571,-0.1571,-0.1622,-0.1624,-0.1626,-0.1649,0,0,-0.1634,-0.1635,0,0,0,0,0,0,0,0,-0.1468,-0.1473,-0.152,-0.1521,-0.1523,-0.1558,-0.1549,-0.1589,-0.1572,-0.1554,-0.1571,-0.1571,-0.1602,-0.1606,-0.1616,-0.1652,-0.1654,-0.1634,-0.1635,-0.1636,-0.1637,0,0,0,0,0,0,0,-0.1465,-0.1471,-0.1528,-0.152,-0.1523,-0.1527,-0.1532,-0.1556,-0.1579,-0.1555,-0.1557,-0.1562,-0.1603,-0.1613,-0.1617,-0.1655,-0.1634,-0.1636,-0.1638,-0.1638,-0.1713,-0.1713,0,0,0,0,0,0,-0.146,-0.1468,-0.1526,-0.1529,-0.1494,-0.1528,-0.1534,-0.1547,-0.1579,-0.1584,-0.1562,-0.1562,-0.1609,-0.1614,-0.1619,-0.1648,-0.1636,-0.1639,-0.164,-0.1712,-0.1713,-0.1713,0,0,0,0,0,0,-0.1458,-0.1465,-0.1524,-0.1499,-0.1507,-0.153,-0.1545,-0.1548,-0.1559,-0.1584,-0.1589,-0.1569,-0.1609,-0.1615,-0.1642,-0.165,-0.164,-0.1642,-0.1711,-0.1712,-0.1713,-0.1707,0,0,0,0,0,0,-0.1455,-0.1464,-0.1472,-0.1499,-0.1508,-0.1546,-0.1545,-0.155,-0.1563,-0.1564,-0.1592,-0.1596,-0.1609,-0.1638,-0.1644,-0.1653,-0.1644,-0.1711,-0.1712,-0.1713,-0.1707,-0.1707,-0.1708,0,0,0,0,0,-0.1453,-0.1469,-0.1473,-0.148,-0.1519,-0.1546,-0.1551,-0.1566,-0.1564,-0.1573,-0.1589,-0.1595,-0.1648,-0.164,-0.1647,-0.1658,-0.171,-0.1711,-0.1713,-0.1706,-0.1707,-0.1708,0,0,0,0,0,0,-0.1443,-0.1473,-0.1477,-0.1503,-0.1522,-0.1548,-0.156,-0.1566,-0.1587,-0.1587,-0.1605,-0.1611,-0.1636,-0.1649,-0.164,-0.1682,-0.1679,-0.1682,-0.1672,-0.1673,-0.1674,-0.1671,-0.1646,0,0,0,0,0,-0.1444,-0.1463,-0.1488,-0.1508,-0.1517,-0.1537,-0.1549,-0.1559,-0.1579,-0.1588,-0.1606,-0.1626,-0.1647,-0.1661,-0.1682,-0.1708,-0.1715,-0.1719,-0.172,-0.172,-0.1723,-0.1738,-0.174,-0.1717,-0.1717,-0.1717,0,0,-0.1446,-0.1465,-0.1475,-0.1506,-0.1522,-0.1542,-0.1544,-0.1564,-0.1579,-0.1591,-0.1617,-0.1631,-0.1655,-0.1681,-0.1694,-0.1693,-0.173,-0.1722,-0.1722,-0.1724,-0.1739,-0.1742,-0.1744,-0.1718,-0.1718,-0.1717,0,0,-0.146,-0.1475,-0.1494,-0.151,-0.1533,-0.1547,-0.1551,-0.1577,-0.1586,-0.1612,-0.1622,-0.164,-0.1676,-0.1693,-0.1706,-0.1726,-0.1733,-0.1733,-0.1737,-0.1752,-0.1754,-0.1756,-0.1763,-0.1766,-0.1735,-0.1735,-0.1735,0,-0.146,-0.1489,-0.1503,-0.1523,-0.1537,-0.1548,-0.1567,-0.1582,-0.1611,-0.1621,-0.162,-0.1665,-0.1682,-0.1713,-0.1718,-0.1728,-0.1734,-0.173,-0.1752,-0.1754,-0.1756,-0.1764,-0.1767,-0.1734,-0.1734,-0.1734,-0.1734,0,-0.1488,-0.1508,-0.152,-0.1548,-0.1563,-0.1582,-0.16,-0.1614,-0.1622,-0.1635,-0.1662,-0.1682,-0.1708,-0.1716,-0.1724,-0.1748,-0.1747,-0.1749,-0.1747,-0.1758,-0.1765,-0.1768,-0.1734,-0.1734,-0.1734,-0.1734,0,0,-0.1497,-0.1532,-0.1537,-0.1549,-0.1576,-0.1593,-0.1613,-0.1637,-0.1649,-0.1669,-0.1687,-0.1717,-0.1719,-0.1734,-0.1744,-0.1757,-0.1773,-0.1758,-0.1759,-0.176,-0.1801,-0.1799,-0.1802,-0.1777,-0.1777,-0.1778,-0.1799,0,-0.1515,-0.1551,-0.1564,-0.1594,-0.1613,-0.1624,-0.1642,-0.1661,-0.1674,-0.1692,-0.1707,-0.1728,-0.1729,-0.1738,-0.1751,-0.1768,-0.1781,-0.1767,-0.1795,-0.1795,-0.1789,-0.1806,-0.1805,-0.1824,-0.1802,-0.1802,-0.1803,0,-0.154,-0.156,-0.1592,-0.1616,-0.1625,-0.164,-0.1664,-0.1681,-0.1703,-0.1712,-0.1729,-0.1738,-0.176,-0.1757,-0.1788,-0.1778,-0.179,-0.18,-0.1801,-0.1805,-0.18,-0.1811,-0.183,-0.1833,-0.1807,-0.1807,-0.1807,0,-0.1545,-0.1579,-0.1603,-0.1613,-0.1643,-0.1653,-0.1666,-0.1688,-0.1701,-0.1722,-0.1731,-0.1755,-0.1768,-0.1786,-0.1801,-0.1797,-0.1832,-0.1829,-0.184,-0.184,-0.1847,-0.1847,-0.1869,-0.1854,-0.1854,-0.1854,-0.1854,0,-0.1563,-0.1582,-0.1605,-0.162,-0.1641,-0.1657,-0.1678,-0.1692,-0.1711,-0.1729,-0.1739,-0.1756,-0.1776,-0.1795,-0.1807,-0.1832,-0.1838,-0.1846,-0.1849,-0.1845,-0.1844,-0.1854,-0.1853,-0.1855,-0.1855,-0.1855,-0.1855,0,-0.1572,-0.1588,-0.1614,-0.164,-0.1647,-0.1662,-0.1684,-0.1699,-0.1712,-0.1735,-0.1741,-0.1762,-0.1786,-0.1803,-0.1833,-0.1842,-0.1868,-0.1871,-0.186,-0.1862,-0.1873,-0.1871,-0.1902,-0.1908,-0.1889,-0.1889,-0.1889,0,-0.1583,-0.1598,-0.1625,-0.1637,-0.165,-0.167,-0.1684,-0.17,-0.1714,-0.174,-0.1752,-0.1776,-0.1796,-0.1833,-0.1851,-0.1875,-0.1879,-0.1888,-0.1883,-0.1878,-0.188,-0.1879,-0.1881,-0.1889,-0.1889,-0.1889,-0.1889,0,-0.1601,-0.1608,-0.1628,-0.165,-0.1667,-0.1685,-0.1704,-0.1713,-0.1733,-0.1748,-0.1772,-0.1788,-0.1818,-0.1842,-0.1867,-0.1882,-0.1889,-0.1891,-0.1895,-0.1891,-0.1885,-0.1889,-0.1863,-0.189,-0.189,-0.189,-0.189,-0.189,-0.1612,-0.1626,-0.1647,-0.1669,-0.1684,-0.1701,-0.1717,-0.1732,-0.1751,-0.1777,-0.1786,-0.181,-0.1832,-0.1867,-0.1881,-0.1901,-0.1901,-0.1906,-0.1908,-0.1909,-0.1909,-0.1881,-0.1905,-0.1905,-0.1905,-0.1905,-0.1905,0,-0.1631,-0.1645,-0.1665,-0.169,-0.1707,-0.1712,-0.1733,-0.1747,-0.1769,-0.1788,-0.1807,-0.1835,-0.1858,-0.1878,-0.1902,-0.1915,-0.1919,-0.192,-0.192,-0.1923,-0.1908,-0.1902,-0.1917,-0.1917,-0.1917,-0.1917,-0.1917,-0.1917,-0.1643,-0.1667,-0.1677,-0.1708,-0.1723,-0.1746,-0.1758,-0.1774,-0.179,-0.182,-0.1839,-0.1851,-0.1872,-0.1897,-0.1919,-0.1924,-0.1933,-0.1934,-0.1941,-0.1926,-0.1924,-0.1923,-0.1918,-0.1936,-0.1936,-0.1955,-0.1955,-0.1955]}]]